Location: *
(45.0500°N, 12.0500°E)
Time: 23:52:31
(UTC+00:00)

Cosmos 1340 Rocket - Pass Details

Date: 09 April 2020
Orbit: 529 x 559 km, 81.2° (Epoch: 04 June)

Event Time Altitude Azimuth Distance (km) Brightness Sun altitude
Rises 19:03:03 0° 189° (S) 2,726 6.2 -13.0°
Reaches altitude 10° 19:05:13 10° 190° (S) 1,833 5.3 -13.3°
Maximum altitude 19:09:16 89° 278° (W) 559 2.8 -14.0°
Drops below altitude 10° 19:13:19 10° 10° (N) 1,832 5.7 -14.6°
Sets 19:15:29 0° 11° (N) 2,725 6.6 -14.9°
